Time,TemperatureF,DewpointF,PressureIn,WindDirection,WindDirectionDegrees,WindSpeedMPH,WindSpeedGustMPH,Humidity,HourlyPrecipIn,Conditions,Clouds,dailyrainin,SoftwareType,DateUTC
2013-07-25 00:01:00,78.7,75.2,29.91,SW,235,4.0,6.0,89,0.00,,SKC,0.00,VWS V14.01,2013-07-25 04:01:00,
2013-07-25 00:05:00,78.7,75.2,29.91,WSW,242,6.0,10.0,89,0.00,,SKC,0.00,VWS V14.01,2013-07-25 04:05:00,
2013-07-25 00:10:00,78.7,75.2,29.91,WSW,246,4.0,7.0,89,0.00,,SKC,0.00,VWS V14.01,2013-07-25 04:10:00,
2013-07-25 00:15:00,78.7,75.2,29.91,WSW,248,5.0,8.0,89,0.00,,SKC,0.00,VWS V14.01,2013-07-25 04:15:00,
2013-07-25 00:20:00,78.8,75.3,29.91,WSW,244,5.0,10.0,89,0.00,,SKC,0.00,VWS V14.01,2013-07-25 04:20:00,
2013-07-25 00:25:00,78.9,75.4,29.91,WSW,240,4.0,9.0,89,0.00,,SKC,0.00,VWS V14.01,2013-07-25 04:25:00,
2013-07-25 00:30:00,78.9,75.4,29.91,SW,232,7.0,10.0,89,0.00,,SKC,0.00,VWS V14.01,2013-07-25 04:30:00,
2013-07-25 00:35:00,78.9,75.4,29.91,SW,230,9.0,12.0,89,0.00,,SKC,0.00,VWS V14.01,2013-07-25 04:35:00,
2013-07-25 00:40:00,78.9,75.4,29.91,SW,232,7.0,10.0,89,0.00,,SKC,0.00,VWS V14.01,2013-07-25 04:40:00,
2013-07-25 00:45:00,78.8,75.3,29.91,SW,233,7.0,8.0,89,0.00,,SKC,0.00,VWS V14.01,2013-07-25 04:45:00,
2013-07-25 00:50:00,78.7,75.2,29.91,SW,225,6.0,8.0,89,0.00,,SKC,0.00,VWS V14.01,2013-07-25 04:50:00,
2013-07-25 00:55:00,78.5,75.3,29.91,SW,230,5.0,5.0,90,0.00,,SKC,0.00,VWS V14.01,2013-07-25 04:55:00,
2013-07-25 01:00:00,78.4,75.2,29.91,SW,228,6.0,8.0,90,0.00,,SKC,0.00,VWS V14.01,2013-07-25 05:00:00,
2013-07-25 01:05:00,78.4,75.2,29.91,SW,232,3.0,9.0,90,0.00,,SKC,0.00,VWS V14.01,2013-07-25 05:05:00,
2013-07-25 01:10:00,78.4,75.2,29.90,SW,224,7.0,7.0,90,0.00,,SKC,0.00,VWS V14.01,2013-07-25 05:10:00,
2013-07-25 01:15:00,78.2,75.0,29.90,SW,227,7.0,8.0,90,0.00,,SKC,0.00,VWS V14.01,2013-07-25 05:15:00,
2013-07-25 01:20:00,78.1,74.9,29.90,SW,225,5.0,7.0,90,0.00,,SKC,0.00,VWS V14.01,2013-07-25 05:20:00,
2013-07-25 01:25:00,78.1,74.9,29.90,SW,222,4.0,8.0,90,0.00,,SKC,0.00,VWS V14.01,2013-07-25 05:25:00,
2013-07-25 01:30:00,78.0,74.8,29.90,SW,223,6.0,8.0,90,0.00,,SKC,0.00,VWS V14.01,2013-07-25 05:30:00,
2013-07-25 01:35:00,77.9,75.1,29.89,SW,225,5.0,9.0,91,0.00,,SKC,0.00,VWS V14.01,2013-07-25 05:35:00,
2013-07-25 01:40:00,77.9,75.1,29.89,SW,225,5.0,8.0,91,0.00,,SKC,0.00,VWS V14.01,2013-07-25 05:40:00,
2013-07-25 01:45:00,77.9,75.1,29.89,SW,219,4.0,8.0,91,0.00,,SKC,0.00,VWS V14.01,2013-07-25 05:45:00,
2013-07-25 01:50:00,77.9,75.1,29.89,SW,225,7.0,8.0,91,0.00,,SKC,0.00,VWS V14.01,2013-07-25 05:50:00,
2013-07-25 01:55:00,77.9,75.1,29.89,SW,227,5.0,9.0,91,0.00,,SKC,0.00,VWS V14.01,2013-07-25 05:55:00,
2013-07-25 02:00:00,77.9,75.1,29.89,SW,223,9.0,9.0,91,0.00,,SKC,0.00,VWS V14.01,2013-07-25 06:00:00,
2013-07-25 02:05:00,77.9,75.1,29.89,SW,229,5.0,8.0,91,0.00,,SKC,0.00,VWS V14.01,2013-07-25 06:05:00,
2013-07-25 02:10:00,77.8,75.0,29.89,SW,229,6.0,8.0,91,0.00,,SKC,0.00,VWS V14.01,2013-07-25 06:10:00,
2013-07-25 02:15:00,77.8,75.0,29.88,SW,229,5.0,8.0,91,0.00,,SKC,0.00,VWS V14.01,2013-07-25 06:15:00,
2013-07-25 02:20:00,77.8,75.0,29.88,SW,229,5.0,8.0,91,0.00,,SKC,0.00,VWS V14.01,2013-07-25 06:20:00,
2013-07-25 02:25:00,77.8,75.0,29.88,SW,227,4.0,7.0,91,0.00,,SKC,0.00,VWS V14.01,2013-07-25 06:25:00,
2013-07-25 02:30:00,77.8,75.0,29.88,SW,227,6.0,7.0,91,0.00,,SKC,0.00,VWS V14.01,2013-07-25 06:30:00,
2013-07-25 02:35:00,77.8,75.3,29.88,SW,227,5.0,6.0,92,0.00,,SKC,0.00,VWS V14.01,2013-07-25 06:35:00,
2013-07-25 02:40:00,77.8,75.3,29.88,SW,227,5.0,7.0,92,0.00,,SKC,0.00,VWS V14.01,2013-07-25 06:40:00,
2013-07-25 02:45:00,77.8,75.3,29.88,SW,227,3.0,7.0,92,0.00,,SKC,0.00,VWS V14.01,2013-07-25 06:45:00,
2013-07-25 02:50:00,77.8,75.3,29.88,SW,227,5.0,6.0,92,0.00,,SKC,0.00,VWS V14.01,2013-07-25 06:50:00,
2013-07-25 02:55:00,77.7,75.2,29.88,SW,223,4.0,6.0,92,0.00,,SKC,0.00,VWS V14.01,2013-07-25 06:55:00,
2013-07-25 03:00:00,77.7,75.2,29.87,SW,219,7.0,7.0,92,0.00,,SKC,0.00,VWS V14.01,2013-07-25 07:00:00,
2013-07-25 03:05:00,77.6,75.1,29.87,SW,220,5.0,8.0,92,0.00,,SKC,0.00,VWS V14.01,2013-07-25 07:05:00,
2013-07-25 03:10:00,77.6,75.1,29.87,SW,219,4.0,9.0,92,0.00,,SKC,0.00,VWS V14.01,2013-07-25 07:10:00,
2013-07-25 03:15:00,77.5,75.0,29.87,SW,222,7.0,9.0,92,0.00,,SKC,0.00,VWS V14.01,2013-07-25 07:15:00,
2013-07-25 03:20:00,77.5,75.0,29.87,SW,229,5.0,8.0,92,0.00,,SKC,0.00,VWS V14.01,2013-07-25 07:20:00,
2013-07-25 03:25:00,77.5,75.0,29.88,SW,233,7.0,8.0,92,0.00,,SKC,0.00,VWS V14.01,2013-07-25 07:25:00,
2013-07-25 03:30:00,77.5,75.0,29.88,SW,233,5.0,8.0,92,0.00,,SKC,0.00,VWS V14.01,2013-07-25 07:30:00,
2013-07-25 03:35:00,77.5,75.3,29.88,SW,233,3.0,6.0,93,0.00,,SKC,0.00,VWS V14.01,2013-07-25 07:35:00,
2013-07-25 03:40:00,77.5,75.3,29.88,SW,233,2.0,8.0,93,0.00,,SKC,0.00,VWS V14.01,2013-07-25 07:40:00,
2013-07-25 03:45:00,77.6,75.4,29.87,SW,233,5.0,8.0,93,0.00,,SKC,0.00,VWS V14.01,2013-07-25 07:45:00,
2013-07-25 03:50:00,77.5,75.3,29.87,SW,232,4.0,8.0,93,0.00,,SKC,0.00,VWS V14.01,2013-07-25 07:50:00,
2013-07-25 03:55:00,77.5,75.3,29.88,SW,225,5.0,7.0,93,0.00,,SKC,0.00,VWS V14.01,2013-07-25 07:55:00,
2013-07-25 04:00:00,77.5,75.3,29.87,SW,220,6.0,7.0,93,0.00,,SKC,0.00,VWS V14.01,2013-07-25 08:00:00,
2013-07-25 04:05:00,77.5,75.3,29.87,SW,224,6.0,8.0,93,0.00,,SKC,0.00,VWS V14.01,2013-07-25 08:05:00,
2013-07-25 04:10:00,77.5,75.3,29.87,SW,224,6.0,9.0,93,0.00,,SKC,0.00,VWS V14.01,2013-07-25 08:10:00,
2013-07-25 04:15:00,77.4,75.2,29.87,SW,223,7.0,8.0,93,0.00,,SKC,0.00,VWS V14.01,2013-07-25 08:15:00,
2013-07-25 04:20:00,77.4,75.2,29.87,SW,223,8.0,8.0,93,0.00,,SKC,0.00,VWS V14.01,2013-07-25 08:20:00,
2013-07-25 04:25:00,77.4,75.2,29.87,SW,226,4.0,8.0,93,0.00,,SKC,0.00,VWS V14.01,2013-07-25 08:25:00,
2013-07-25 04:30:00,77.3,75.1,29.87,SW,223,4.0,7.0,93,0.00,,SKC,0.00,VWS V14.01,2013-07-25 08:30:00,
2013-07-25 04:35:00,77.3,75.1,29.87,SW,227,6.0,8.0,93,0.00,,SKC,0.00,VWS V14.01,2013-07-25 08:35:00,
2013-07-25 04:40:00,77.3,75.1,29.87,SW,228,5.0,7.0,93,0.00,,SKC,0.00,VWS V14.01,2013-07-25 08:40:00,
2013-07-25 04:45:00,77.3,75.1,29.87,SW,224,5.0,8.0,93,0.00,,SKC,0.00,VWS V14.01,2013-07-25 08:45:00,
2013-07-25 04:50:00,77.3,75.1,29.87,SW,224,3.0,6.0,93,0.00,,SKC,0.00,VWS V14.01,2013-07-25 08:50:00,
2013-07-25 04:55:00,77.3,75.1,29.87,SW,222,4.0,4.0,93,0.00,,SKC,0.00,VWS V14.01,2013-07-25 08:55:00,
2013-07-25 05:00:00,77.2,75.0,29.87,SSW,212,4.0,7.0,93,0.00,,SKC,0.00,VWS V14.01,2013-07-25 09:00:00,
2013-07-25 05:05:00,77.2,75.0,29.87,SSW,212,6.0,7.0,93,0.00,,SKC,0.00,VWS V14.01,2013-07-25 09:05:00,
2013-07-25 05:10:00,77.2,75.0,29.87,SW,220,5.0,7.0,93,0.00,,SKC,0.00,VWS V14.01,2013-07-25 09:10:00,
2013-07-25 05:15:00,77.2,75.0,29.87,SW,220,3.0,6.0,93,0.00,,SKC,0.00,VWS V14.01,2013-07-25 09:15:00,
2013-07-25 05:20:00,77.2,75.0,29.87,SW,220,5.0,7.0,93,0.00,,SKC,0.00,VWS V14.01,2013-07-25 09:20:00,
2013-07-25 05:25:00,77.2,75.0,29.87,SW,218,5.0,7.0,93,0.00,,SKC,0.00,VWS V14.01,2013-07-25 09:25:00,
2013-07-25 05:30:00,77.2,75.0,29.88,SW,217,7.0,7.0,93,0.00,,SKC,0.00,VWS V14.01,2013-07-25 09:30:00,
2013-07-25 05:35:00,77.2,75.0,29.88,SW,217,5.0,7.0,93,0.00,,SKC,0.00,VWS V14.01,2013-07-25 09:35:00,
2013-07-25 05:40:00,77.2,75.0,29.87,SW,218,3.0,6.0,93,0.00,,SKC,0.00,VWS V14.01,2013-07-25 09:40:00,
2013-07-25 05:45:00,77.2,75.0,29.88,SW,218,4.0,7.0,93,0.00,,SKC,0.00,VWS V14.01,2013-07-25 09:45:00,
2013-07-25 05:50:00,77.2,75.0,29.88,SW,216,4.0,4.0,93,0.00,,SKC,0.00,VWS V14.01,2013-07-25 09:50:00,
2013-07-25 05:55:00,77.3,75.1,29.88,SW,216,3.0,7.0,93,0.00,,SKC,0.00,VWS V14.01,2013-07-25 09:55:00,
2013-07-25 06:00:00,77.3,75.1,29.88,SW,216,5.0,7.0,93,0.00,,SKC,0.00,VWS V14.01,2013-07-25 10:00:00,
2013-07-25 06:05:00,77.3,75.1,29.88,SW,216,5.0,6.0,93,0.00,,SKC,0.00,VWS V14.01,2013-07-25 10:05:00,
2013-07-25 06:10:00,77.2,75.0,29.88,SW,216,5.0,7.0,93,0.00,,SKC,0.00,VWS V14.01,2013-07-25 10:10:00,
2013-07-25 06:15:00,77.3,75.1,29.88,SW,216,3.0,6.0,93,0.00,,SKC,0.00,VWS V14.01,2013-07-25 10:15:00,
2013-07-25 06:20:00,77.3,75.1,29.88,SW,216,6.0,6.0,93,0.00,,SKC,0.00,VWS V14.01,2013-07-25 10:20:00,
2013-07-25 06:25:00,77.3,75.1,29.89,SW,219,6.0,8.0,93,0.00,,SKC,0.00,VWS V14.01,2013-07-25 10:25:00,
2013-07-25 06:30:00,77.3,75.1,29.89,SW,221,7.0,7.0,93,0.00,,SKC,0.00,VWS V14.01,2013-07-25 10:30:00,
2013-07-25 06:35:00,77.3,75.1,29.89,SW,221,5.0,9.0,93,0.00,,SKC,0.00,VWS V14.01,2013-07-25 10:35:00,
2013-07-25 06:40:00,77.4,75.5,29.89,WSW,238,7.0,8.0,94,0.00,,SKC,0.00,VWS V14.01,2013-07-25 10:40:00,
2013-07-25 06:45:00,77.5,75.6,29.90,West,266,5.0,8.0,94,0.00,,SKC,0.00,VWS V14.01,2013-07-25 10:45:00,
2013-07-25 06:50:00,77.4,75.2,29.90,WSW,249,9.0,10.0,93,0.00,,SKC,0.00,VWS V14.01,2013-07-25 10:50:00,
2013-07-25 06:55:00,76.2,73.7,29.90,WSW,244,7.0,14.0,92,0.00,,SKC,0.00,VWS V14.01,2013-07-25 10:55:00,
2013-07-25 07:00:00,75.5,73.0,29.90,WNW,292,7.0,8.0,92,0.00,,SKC,0.00,VWS V14.01,2013-07-25 11:00:00,
2013-07-25 07:05:00,75.4,72.9,29.91,West,278,5.0,11.0,92,0.00,,SKC,0.00,VWS V14.01,2013-07-25 11:05:00,
2013-07-25 07:10:00,75.5,73.0,29.91,West,271,7.0,15.0,92,0.00,,SKC,0.00,VWS V14.01,2013-07-25 11:10:00,
2013-07-25 07:15:00,75.5,73.0,29.92,West,275,9.0,12.0,92,0.00,,SKC,0.00,VWS V14.01,2013-07-25 11:15:00,
2013-07-25 07:20:00,75.8,73.0,29.92,West,261,12.0,16.0,91,0.00,,SKC,0.00,VWS V14.01,2013-07-25 11:20:00,
2013-07-25 07:25:00,75.9,72.8,29.93,West,272,10.0,10.0,90,0.00,,SKC,0.00,VWS V14.01,2013-07-25 11:25:00,
2013-07-25 07:30:00,75.7,72.9,29.93,WSW,258,4.0,4.0,91,0.00,,SKC,0.00,VWS V14.01,2013-07-25 11:30:00,
2013-07-25 07:35:00,75.5,72.7,29.94,WSW,242,9.0,9.0,91,0.00,,SKC,0.00,VWS V14.01,2013-07-25 11:35:00,
2013-07-25 07:40:00,75.3,72.5,29.94,West,260,8.0,15.0,91,0.00,,SKC,0.00,VWS V14.01,2013-07-25 11:40:00,
2013-07-25 07:45:00,75.1,72.3,29.94,WSW,252,7.0,14.0,91,0.00,,SKC,0.00,VWS V14.01,2013-07-25 11:45:00,
2013-07-25 07:50:00,74.9,72.4,29.94,West,277,3.0,12.0,92,0.01,,SKC,0.01,VWS V14.01,2013-07-25 11:50:00,
2013-07-25 07:55:00,74.7,72.2,29.93,West,267,5.0,7.0,92,0.03,,SKC,0.03,VWS V14.01,2013-07-25 11:55:00,
2013-07-25 08:00:00,74.6,72.1,29.93,West,265,3.0,7.0,92,0.05,,SKC,0.05,VWS V14.01,2013-07-25 12:00:00,
2013-07-25 08:05:00,74.6,72.4,29.93,West,269,3.0,5.0,93,0.06,,SKC,0.06,VWS V14.01,2013-07-25 12:05:00,
2013-07-25 08:10:00,74.5,72.3,29.93,WSW,252,4.0,4.0,93,0.07,,SKC,0.07,VWS V14.01,2013-07-25 12:10:00,
2013-07-25 08:15:00,74.4,72.2,29.93,WSW,252,1.0,4.0,93,0.07,,SKC,0.07,VWS V14.01,2013-07-25 12:15:00,
2013-07-25 08:20:00,74.4,72.2,29.93,WSW,252,4.0,4.0,93,0.07,,SKC,0.07,VWS V14.01,2013-07-25 12:20:00,
2013-07-25 08:25:00,74.3,72.5,29.94,WSW,239,4.0,6.0,94,0.07,,SKC,0.07,VWS V14.01,2013-07-25 12:25:00,
2013-07-25 08:30:00,74.4,72.6,29.94,SSW,202,6.0,7.0,94,0.08,,SKC,0.08,VWS V14.01,2013-07-25 12:30:00,
2013-07-25 08:35:00,74.4,72.6,29.94,SW,223,4.0,7.0,94,0.08,,SKC,0.08,VWS V14.01,2013-07-25 12:35:00,
2013-07-25 08:40:00,74.2,72.4,29.93,SW,232,6.0,8.0,94,0.08,,SKC,0.08,VWS V14.01,2013-07-25 12:40:00,
2013-07-25 08:45:00,73.9,72.1,29.93,SW,232,6.0,8.0,94,0.08,,SKC,0.08,VWS V14.01,2013-07-25 12:45:00,
2013-07-25 08:50:00,73.8,72.0,29.93,WSW,241,5.0,7.0,94,0.08,,SKC,0.08,VWS V14.01,2013-07-25 12:50:00,
2013-07-25 08:55:00,73.7,71.9,29.93,WSW,238,5.0,9.0,94,0.07,,SKC,0.08,VWS V14.01,2013-07-25 12:55:00,
2013-07-25 09:00:00,73.8,72.0,29.94,SW,226,8.0,9.0,94,0.05,,SKC,0.08,VWS V14.01,2013-07-25 13:00:00,
2013-07-25 09:05:00,73.9,72.1,29.94,SW,228,4.0,9.0,94,0.03,,SKC,0.08,VWS V14.01,2013-07-25 13:05:00,
2013-07-25 09:10:00,74.0,72.2,29.93,SW,225,4.0,8.0,94,0.02,,SKC,0.08,VWS V14.01,2013-07-25 13:10:00,
2013-07-25 09:15:00,74.1,72.3,29.94,SW,224,4.0,8.0,94,0.01,,SKC,0.08,VWS V14.01,2013-07-25 13:15:00,
2013-07-25 09:20:00,74.1,72.3,29.93,SW,223,3.0,7.0,94,0.01,,SKC,0.08,VWS V14.01,2013-07-25 13:20:00,
2013-07-25 09:25:00,74.2,72.4,29.93,SW,223,5.0,7.0,94,0.01,,SKC,0.08,VWS V14.01,2013-07-25 13:25:00,
2013-07-25 09:30:00,74.4,72.6,29.94,SW,225,5.0,7.0,94,0.01,,SKC,0.08,VWS V14.01,2013-07-25 13:30:00,
2013-07-25 09:35:00,74.5,72.7,29.94,SW,222,5.0,7.0,94,0.00,,SKC,0.08,VWS V14.01,2013-07-25 13:35:00,
2013-07-25 09:40:00,74.7,72.9,29.94,SW,223,7.0,9.0,94,0.00,,SKC,0.08,VWS V14.01,2013-07-25 13:40:00,
2013-07-25 09:45:00,74.9,73.1,29.94,SW,222,3.0,6.0,94,0.00,,SKC,0.08,VWS V14.01,2013-07-25 13:45:00,
2013-07-25 09:50:00,75.0,73.2,29.95,SW,234,3.0,8.0,94,0.00,,SKC,0.08,VWS V14.01,2013-07-25 13:50:00,
2013-07-25 09:55:00,75.1,73.3,29.95,SW,220,5.0,7.0,94,0.00,,SKC,0.08,VWS V14.01,2013-07-25 13:55:00,
2013-07-25 10:00:00,75.2,73.4,29.96,SW,223,6.0,9.0,94,0.00,,SKC,0.08,VWS V14.01,2013-07-25 14:00:00,
2013-07-25 10:05:00,75.4,73.6,29.96,SW,216,5.0,9.0,94,0.00,,SKC,0.08,VWS V14.01,2013-07-25 14:05:00,
2013-07-25 10:10:00,75.6,73.8,29.96,SSW,211,6.0,7.0,94,0.00,,SKC,0.08,VWS V14.01,2013-07-25 14:10:00,
2013-07-25 10:15:00,75.7,73.8,29.96,SSW,213,6.0,9.0,94,0.00,,SKC,0.08,VWS V14.01,2013-07-25 14:15:00,
2013-07-25 10:20:00,75.9,73.7,29.96,SW,228,3.0,8.0,93,0.00,,SKC,0.08,VWS V14.01,2013-07-25 14:20:00,
2013-07-25 10:25:00,76.1,73.9,29.97,SW,223,3.0,8.0,93,0.00,,SKC,0.08,VWS V14.01,2013-07-25 14:25:00,
2013-07-25 10:30:00,76.2,74.0,29.97,SW,221,5.0,7.0,93,0.00,,SKC,0.08,VWS V14.01,2013-07-25 14:30:00,
2013-07-25 10:35:00,76.4,74.2,29.97,SW,216,4.0,9.0,93,0.00,,SKC,0.08,VWS V14.01,2013-07-25 14:35:00,
2013-07-25 10:40:00,76.6,74.4,29.97,SW,215,6.0,8.0,93,0.00,,SKC,0.08,VWS V14.01,2013-07-25 14:40:00,
2013-07-25 10:45:00,76.8,74.3,29.97,SW,225,3.0,8.0,92,0.00,,SKC,0.08,VWS V14.01,2013-07-25 14:45:00,
2013-07-25 10:50:00,77.0,74.5,29.97,SW,225,8.0,8.0,92,0.00,,SKC,0.08,VWS V14.01,2013-07-25 14:50:00,
2013-07-25 10:55:00,77.0,74.5,29.98,SW,226,5.0,7.0,92,0.00,,SKC,0.08,VWS V14.01,2013-07-25 14:55:00,
2013-07-25 11:00:00,77.2,74.7,29.98,SW,229,4.0,8.0,92,0.00,,SKC,0.08,VWS V14.01,2013-07-25 15:00:00,
2013-07-25 11:05:00,77.3,74.8,29.98,SW,228,7.0,7.0,92,0.00,,SKC,0.08,VWS V14.01,2013-07-25 15:05:00,
2013-07-25 11:10:00,77.3,74.8,29.98,SW,229,9.0,11.0,92,0.00,,SKC,0.08,VWS V14.01,2013-07-25 15:10:00,
2013-07-25 11:15:00,77.6,75.1,29.99,SW,227,9.0,10.0,92,0.00,,SKC,0.08,VWS V14.01,2013-07-25 15:15:00,
2013-07-25 11:20:00,77.5,75.0,29.98,SW,215,11.0,12.0,92,0.00,,SKC,0.08,VWS V14.01,2013-07-25 15:20:00,
2013-07-25 11:25:00,77.3,74.5,29.98,WSW,257,10.0,15.0,91,0.00,,SKC,0.08,VWS V14.01,2013-07-25 15:25:00,
2013-07-25 11:30:00,77.4,74.2,29.98,WSW,248,4.0,13.0,90,0.01,,SKC,0.09,VWS V14.01,2013-07-25 15:30:00,
2013-07-25 11:35:00,78.0,74.8,29.98,WSW,250,6.0,9.0,90,0.01,,SKC,0.09,VWS V14.01,2013-07-25 15:35:00,
2013-07-25 11:40:00,78.1,74.6,29.98,WSW,243,8.0,11.0,89,0.01,,SKC,0.09,VWS V14.01,2013-07-25 15:40:00,
2013-07-25 11:45:00,78.5,75.0,29.98,WSW,249,7.0,12.0,89,0.01,,SKC,0.09,VWS V14.01,2013-07-25 15:45:00,
2013-07-25 11:50:00,78.8,74.9,29.98,WSW,248,7.0,10.0,88,0.01,,SKC,0.09,VWS V14.01,2013-07-25 15:50:00,
2013-07-25 11:55:00,79.4,75.2,29.98,WSW,243,9.0,13.0,87,0.01,,SKC,0.09,VWS V14.01,2013-07-25 15:55:00,
2013-07-25 12:00:00,80.2,75.6,29.98,SW,234,6.0,14.0,86,0.01,,SKC,0.09,VWS V14.01,2013-07-25 16:00:00,
2013-07-25 12:05:00,81.0,76.4,29.97,West,280,12.0,12.0,86,0.01,,SKC,0.09,VWS V14.01,2013-07-25 16:05:00,
2013-07-25 12:10:00,81.3,76.4,29.97,WSW,257,10.0,15.0,85,0.01,,SKC,0.09,VWS V14.01,2013-07-25 16:10:00,
2013-07-25 12:15:00,81.1,76.2,29.97,West,281,6.0,15.0,85,0.01,,SKC,0.09,VWS V14.01,2013-07-25 16:15:00,
2013-07-25 12:20:00,81.5,76.6,29.97,WSW,244,7.0,12.0,85,0.01,,SKC,0.09,VWS V14.01,2013-07-25 16:20:00,
2013-07-25 12:25:00,81.8,76.5,29.97,West,263,9.0,13.0,84,0.01,,SKC,0.09,VWS V14.01,2013-07-25 16:25:00,
2013-07-25 12:30:00,82.5,77.5,29.98,WSW,242,8.0,12.0,85,0.01,,SKC,0.09,VWS V14.01,2013-07-25 16:30:00,
2013-07-25 12:35:00,83.0,76.9,29.98,WSW,255,9.0,9.0,82,0.00,,SKC,0.09,VWS V14.01,2013-07-25 16:35:00,
2013-07-25 12:40:00,82.7,76.7,29.98,SW,236,9.0,13.0,82,0.00,,SKC,0.09,VWS V14.01,2013-07-25 16:40:00,
2013-07-25 12:45:00,82.7,77.0,29.97,WSW,249,5.0,5.0,83,0.00,,SKC,0.09,VWS V14.01,2013-07-25 16:45:00,
2013-07-25 12:50:00,82.7,76.7,29.97,WSW,257,13.0,14.0,82,0.00,,SKC,0.09,VWS V14.01,2013-07-25 16:50:00,
2013-07-25 12:55:00,83.3,77.2,29.97,SW,234,12.0,14.0,82,0.00,,SKC,0.09,VWS V14.01,2013-07-25 16:55:00,
2013-07-25 13:00:00,83.9,77.4,29.97,West,263,7.0,13.0,81,0.00,,SKC,0.09,VWS V14.01,2013-07-25 17:00:00,
2013-07-25 13:05:00,83.7,76.5,29.97,WSW,248,12.0,12.0,79,0.00,,SKC,0.09,VWS V14.01,2013-07-25 17:05:00,
2013-07-25 13:10:00,83.6,76.8,29.97,West,275,8.0,12.0,80,0.00,,SKC,0.09,VWS V14.01,2013-07-25 17:10:00,
2013-07-25 13:15:00,83.2,76.0,29.98,North,5,9.0,13.0,79,0.00,,SKC,0.09,VWS V14.01,2013-07-25 17:15:00,
2013-07-25 13:20:00,79.9,74.6,29.98,North,11,3.0,13.0,84,0.03,,SKC,0.12,VWS V14.01,2013-07-25 17:20:00,
2013-07-25 13:25:00,77.9,73.4,29.97,NNE,20,1.0,7.0,86,0.04,,SKC,0.13,VWS V14.01,2013-07-25 17:25:00,
2013-07-25 13:30:00,77.3,73.5,29.97,North,355,1.0,4.0,88,0.05,,SKC,0.14,VWS V14.01,2013-07-25 17:30:00,
2013-07-25 13:35:00,76.9,73.1,29.97,NW,314,0.0,8.0,88,0.05,,SKC,0.14,VWS V14.01,2013-07-25 17:35:00,
2013-07-25 13:40:00,77.2,73.7,29.97,NW,321,5.0,5.0,89,0.05,,SKC,0.14,VWS V14.01,2013-07-25 17:40:00,
2013-07-25 13:45:00,77.7,74.2,29.97,WNW,298,0.0,7.0,89,0.05,,SKC,0.14,VWS V14.01,2013-07-25 17:45:00,
2013-07-25 13:50:00,78.0,74.5,29.97,WNW,294,4.0,7.0,89,0.05,,SKC,0.14,VWS V14.01,2013-07-25 17:50:00,
2013-07-25 13:55:00,78.2,74.4,29.97,WNW,298,2.0,7.0,88,0.05,,SKC,0.14,VWS V14.01,2013-07-25 17:55:00,
2013-07-25 14:00:00,78.3,74.1,29.97,WNW,298,4.0,7.0,87,0.05,,SKC,0.14,VWS V14.01,2013-07-25 18:00:00,
2013-07-25 14:05:00,78.7,74.2,29.97,WNW,299,4.0,8.0,86,0.05,,SKC,0.14,VWS V14.01,2013-07-25 18:05:00,
2013-07-25 14:10:00,78.9,74.0,29.97,NW,304,6.0,7.0,85,0.05,,SKC,0.14,VWS V14.01,2013-07-25 18:10:00,
2013-07-25 14:15:00,78.9,74.4,29.97,WNW,302,3.0,8.0,86,0.05,,SKC,0.14,VWS V14.01,2013-07-25 18:15:00,
2013-07-25 14:20:00,79.1,74.6,29.97,WNW,286,4.0,8.0,86,0.05,,SKC,0.14,VWS V14.01,2013-07-25 18:20:00,
2013-07-25 14:25:00,79.3,74.8,29.97,WNW,290,3.0,8.0,86,0.02,,SKC,0.14,VWS V14.01,2013-07-25 18:25:00,
2013-07-25 14:30:00,79.5,74.9,29.97,NW,312,0.0,7.0,86,0.01,,SKC,0.14,VWS V14.01,2013-07-25 18:30:00,
2013-07-25 14:35:00,79.6,75.1,29.97,NW,320,2.0,5.0,86,0.00,,SKC,0.14,VWS V14.01,2013-07-25 18:35:00,
2013-07-25 14:40:00,79.6,75.1,29.97,WNW,291,5.0,7.0,86,0.00,,SKC,0.14,VWS V14.01,2013-07-25 18:40:00,
2013-07-25 14:45:00,79.6,74.7,29.97,West,275,5.0,9.0,85,0.00,,SKC,0.14,VWS V14.01,2013-07-25 18:45:00,
2013-07-25 14:50:00,79.6,74.7,29.97,WNW,286,5.0,8.0,85,0.00,,SKC,0.14,VWS V14.01,2013-07-25 18:50:00,
2013-07-25 14:55:00,79.8,75.2,29.97,WNW,297,4.0,7.0,86,0.00,,SKC,0.14,VWS V14.01,2013-07-25 18:55:00,
2013-07-25 15:00:00,79.9,75.3,29.96,WNW,302,7.0,8.0,86,0.00,,SKC,0.14,VWS V14.01,2013-07-25 19:00:00,
2013-07-25 15:05:00,80.1,75.5,29.96,NW,313,3.0,7.0,86,0.00,,SKC,0.14,VWS V14.01,2013-07-25 19:05:00,
2013-07-25 15:10:00,80.2,75.6,29.96,WNW,290,7.0,8.0,86,0.00,,SKC,0.14,VWS V14.01,2013-07-25 19:10:00,
2013-07-25 15:15:00,80.5,75.9,29.96,WNW,291,3.0,7.0,86,0.00,,SKC,0.14,VWS V14.01,2013-07-25 19:15:00,
2013-07-25 15:20:00,80.9,76.3,29.96,West,281,4.0,6.0,86,0.00,,SKC,0.14,VWS V14.01,2013-07-25 19:20:00,
2013-07-25 15:25:00,81.4,76.8,29.96,West,277,3.0,7.0,86,0.00,,SKC,0.14,VWS V14.01,2013-07-25 19:25:00,
2013-07-25 15:30:00,82.0,77.1,29.95,WSW,255,6.0,9.0,85,0.00,,SKC,0.14,VWS V14.01,2013-07-25 19:30:00,
2013-07-25 15:35:00,82.4,77.1,29.96,West,262,5.0,7.0,84,0.00,,SKC,0.14,VWS V14.01,2013-07-25 19:35:00,
2013-07-25 15:40:00,82.8,77.5,29.96,West,277,6.0,8.0,84,0.00,,SKC,0.14,VWS V14.01,2013-07-25 19:40:00,
2013-07-25 15:45:00,83.0,76.9,29.96,West,265,6.0,11.0,82,0.00,,SKC,0.14,VWS V14.01,2013-07-25 19:45:00,
2013-07-25 15:50:00,83.4,77.0,29.95,WSW,250,7.0,9.0,81,0.00,,SKC,0.14,VWS V14.01,2013-07-25 19:50:00,
2013-07-25 15:55:00,83.8,76.6,29.95,West,265,6.0,10.0,79,0.00,,SKC,0.14,VWS V14.01,2013-07-25 19:55:00,
2013-07-25 16:00:00,84.2,75.8,29.95,WSW,249,10.0,11.0,76,0.00,,SKC,0.14,VWS V14.01,2013-07-25 20:00:00,
2013-07-25 16:05:00,84.3,75.5,29.95,West,265,7.0,11.0,75,0.00,,SKC,0.14,VWS V14.01,2013-07-25 20:05:00,
2013-07-25 16:10:00,84.3,75.5,29.95,West,262,4.0,10.0,75,0.00,,SKC,0.14,VWS V14.01,2013-07-25 20:10:00,
2013-07-25 16:15:00,84.4,75.2,29.95,West,262,10.0,13.0,74,0.00,,SKC,0.14,VWS V14.01,2013-07-25 20:15:00,
2013-07-25 16:20:00,84.6,75.4,29.94,WSW,248,7.0,10.0,74,0.00,,SKC,0.14,VWS V14.01,2013-07-25 20:20:00,
2013-07-25 16:25:00,84.7,75.1,29.94,West,259,8.0,12.0,73,0.00,,SKC,0.14,VWS V14.01,2013-07-25 20:25:00,
2013-07-25 16:30:00,84.9,75.7,29.94,WSW,251,6.0,9.0,74,0.00,,SKC,0.14,VWS V14.01,2013-07-25 20:30:00,
2013-07-25 16:35:00,84.9,75.7,29.94,West,261,5.0,12.0,74,0.00,,SKC,0.14,VWS V14.01,2013-07-25 20:35:00,
2013-07-25 16:40:00,84.9,74.9,29.94,West,274,10.0,13.0,72,0.00,,SKC,0.14,VWS V14.01,2013-07-25 20:40:00,
2013-07-25 16:45:00,85.0,75.0,29.94,West,272,8.0,11.0,72,0.00,,SKC,0.14,VWS V14.01,2013-07-25 20:45:00,
2013-07-25 16:50:00,84.9,74.9,29.94,WSW,256,11.0,13.0,72,0.00,,SKC,0.14,VWS V14.01,2013-07-25 20:50:00,
2013-07-25 16:55:00,84.7,75.1,29.94,WSW,252,7.0,12.0,73,0.00,,SKC,0.14,VWS V14.01,2013-07-25 20:55:00,
2013-07-25 17:00:00,84.7,75.1,29.94,West,261,4.0,10.0,73,0.00,,SKC,0.14,VWS V14.01,2013-07-25 21:00:00,
2013-07-25 17:05:00,84.7,75.5,29.94,WSW,245,4.0,9.0,74,0.00,,SKC,0.14,VWS V14.01,2013-07-25 21:05:00,
2013-07-25 17:10:00,84.8,75.2,29.94,West,276,9.0,9.0,73,0.00,,SKC,0.14,VWS V14.01,2013-07-25 21:10:00,
2013-07-25 17:15:00,84.8,75.2,29.94,WSW,246,5.0,11.0,73,0.00,,SKC,0.14,VWS V14.01,2013-07-25 21:15:00,
2013-07-25 17:20:00,84.7,75.1,29.94,WNW,289,6.0,9.0,73,0.00,,SKC,0.14,VWS V14.01,2013-07-25 21:20:00,
2013-07-25 17:25:00,84.7,75.1,29.94,West,270,8.0,11.0,73,0.00,,SKC,0.14,VWS V14.01,2013-07-25 21:25:00,
2013-07-25 17:30:00,84.8,75.2,29.94,West,268,8.0,9.0,73,0.00,,SKC,0.14,VWS V14.01,2013-07-25 21:30:00,
2013-07-25 17:35:00,84.8,75.2,29.94,WSW,247,3.0,10.0,73,0.00,,SKC,0.14,VWS V14.01,2013-07-25 21:35:00,
2013-07-25 17:40:00,84.7,75.1,29.94,WSW,253,5.0,10.0,73,0.00,,SKC,0.14,VWS V14.01,2013-07-25 21:40:00,
2013-07-25 17:45:00,84.7,75.1,29.94,West,259,9.0,9.0,73,0.00,,SKC,0.14,VWS V14.01,2013-07-25 21:45:00,
2013-07-25 17:50:00,84.3,75.1,29.94,WSW,252,8.0,10.0,74,0.00,,SKC,0.14,VWS V14.01,2013-07-25 21:50:00,
2013-07-25 17:55:00,84.1,74.9,29.94,WSW,250,4.0,12.0,74,0.00,,SKC,0.14,VWS V14.01,2013-07-25 21:55:00,
2013-07-25 18:00:00,84.1,75.7,29.94,West,263,5.0,8.0,76,0.00,,SKC,0.14,VWS V14.01,2013-07-25 22:00:00,
2013-07-25 18:05:00,84.0,75.2,29.94,West,259,7.0,10.0,75,0.00,,SKC,0.14,VWS V14.01,2013-07-25 22:05:00,
2013-07-25 18:10:00,83.9,75.1,29.94,West,261,8.0,11.0,75,0.00,,SKC,0.14,VWS V14.01,2013-07-25 22:10:00,
2013-07-25 18:15:00,83.9,75.5,29.94,WSW,242,4.0,9.0,76,0.00,,SKC,0.14,VWS V14.01,2013-07-25 22:15:00,
2013-07-25 18:20:00,84.0,75.6,29.94,WSW,252,4.0,8.0,76,0.00,,SKC,0.14,VWS V14.01,2013-07-25 22:20:00,
2013-07-25 18:25:00,84.0,75.6,29.93,West,259,6.0,8.0,76,0.00,,SKC,0.14,VWS V14.01,2013-07-25 22:25:00,
2013-07-25 18:30:00,83.9,75.5,29.93,WSW,248,7.0,9.0,76,0.00,,SKC,0.14,VWS V14.01,2013-07-25 22:30:00,
2013-07-25 18:35:00,83.9,75.5,29.94,WSW,238,9.0,9.0,76,0.00,,SKC,0.14,VWS V14.01,2013-07-25 22:35:00,
2013-07-25 18:40:00,83.9,75.9,29.93,WSW,241,9.0,9.0,77,0.00,,SKC,0.14,VWS V14.01,2013-07-25 22:40:00,
2013-07-25 18:45:00,84.1,75.7,29.93,WSW,241,9.0,9.0,76,0.00,,SKC,0.14,VWS V14.01,2013-07-25 22:45:00,
2013-07-25 18:50:00,84.0,75.6,29.93,WSW,246,7.0,10.0,76,0.00,,SKC,0.14,VWS V14.01,2013-07-25 22:50:00,
2013-07-25 18:55:00,83.8,75.8,29.93,WSW,257,6.0,11.0,77,0.00,,SKC,0.14,VWS V14.01,2013-07-25 22:55:00,
2013-07-25 19:00:00,83.9,76.3,29.93,SW,223,5.0,5.0,78,0.00,,SKC,0.14,VWS V14.01,2013-07-25 23:00:00,
2013-07-25 19:05:00,83.7,76.1,29.93,SW,223,6.0,6.0,78,0.00,,SKC,0.14,VWS V14.01,2013-07-25 23:05:00,
2013-07-25 19:10:00,83.5,76.3,29.94,SW,230,3.0,3.0,79,0.00,,SKC,0.14,VWS V14.01,2013-07-25 23:10:00,
2013-07-25 19:15:00,83.3,76.1,29.93,WSW,250,6.0,6.0,79,0.00,,SKC,0.14,VWS V14.01,2013-07-25 23:15:00,
2013-07-25 19:20:00,83.0,76.2,29.94,WSW,246,6.0,7.0,80,0.00,,SKC,0.14,VWS V14.01,2013-07-25 23:20:00,
2013-07-25 19:25:00,82.9,76.1,29.94,SW,235,7.0,7.0,80,0.00,,SKC,0.14,VWS V14.01,2013-07-25 23:25:00,
2013-07-25 19:30:00,82.6,76.2,29.94,WSW,238,6.0,6.0,81,0.01,,SKC,0.15,VWS V14.01,2013-07-25 23:30:00,
2013-07-25 19:35:00,82.1,76.1,29.94,SW,218,7.0,9.0,82,0.01,,SKC,0.15,VWS V14.01,2013-07-25 23:35:00,
2013-07-25 19:40:00,81.9,75.9,29.94,WSW,239,4.0,5.0,82,0.01,,SKC,0.15,VWS V14.01,2013-07-25 23:40:00,
2013-07-25 19:45:00,81.8,76.1,29.94,WSW,244,7.0,7.0,83,0.01,,SKC,0.15,VWS V14.01,2013-07-25 23:45:00,
2013-07-25 19:50:00,81.7,76.0,29.94,West,261,10.0,10.0,83,0.01,,SKC,0.15,VWS V14.01,2013-07-25 23:50:00,
2013-07-25 19:55:00,81.7,76.0,29.94,WSW,248,5.0,8.0,83,0.01,,SKC,0.15,VWS V14.01,2013-07-25 23:55:00,
2013-07-25 20:00:00,81.4,75.7,29.94,WSW,243,8.0,9.0,83,0.01,,SKC,0.15,VWS V14.01,2013-07-26 00:00:00,
2013-07-25 20:05:00,81.1,75.8,29.94,WSW,248,6.0,7.0,84,0.01,,SKC,0.15,VWS V14.01,2013-07-26 00:05:00,
2013-07-25 20:10:00,80.9,76.0,29.94,WSW,243,8.0,9.0,85,0.01,,SKC,0.15,VWS V14.01,2013-07-26 00:10:00,
2013-07-25 20:15:00,80.8,75.9,29.95,WSW,257,7.0,9.0,85,0.01,,SKC,0.15,VWS V14.01,2013-07-26 00:15:00,
2013-07-25 20:20:00,80.7,75.8,29.95,WSW,250,4.0,6.0,85,0.01,,SKC,0.15,VWS V14.01,2013-07-26 00:20:00,
2013-07-25 20:25:00,80.6,76.0,29.95,SW,229,4.0,5.0,86,0.01,,SKC,0.15,VWS V14.01,2013-07-26 00:25:00,
2013-07-25 20:30:00,80.4,75.8,29.95,WSW,240,6.0,7.0,86,0.00,,SKC,0.15,VWS V14.01,2013-07-26 00:30:00,
2013-07-25 20:35:00,80.3,76.1,29.95,WSW,245,4.0,6.0,87,0.00,,SKC,0.15,VWS V14.01,2013-07-26 00:35:00,
2013-07-25 20:40:00,80.2,76.0,29.95,SW,230,4.0,6.0,87,0.00,,SKC,0.15,VWS V14.01,2013-07-26 00:40:00,
2013-07-25 20:45:00,80.0,75.8,29.94,WSW,246,6.0,6.0,87,0.00,,SKC,0.15,VWS V14.01,2013-07-26 00:45:00,
2013-07-25 20:50:00,79.9,75.7,29.95,WSW,246,3.0,5.0,87,0.00,,SKC,0.15,VWS V14.01,2013-07-26 00:50:00,
2013-07-25 20:56:00,79.8,75.9,29.95,WSW,251,4.0,4.0,88,0.00,,SKC,0.15,VWS V14.01,2013-07-26 00:56:00,
2013-07-25 21:01:00,79.7,75.8,29.95,WSW,242,6.0,6.0,88,0.00,,SKC,0.15,VWS V14.01,2013-07-26 01:01:00,
2013-07-25 21:06:00,79.6,75.7,29.95,WSW,254,5.0,5.0,88,0.00,,SKC,0.15,VWS V14.01,2013-07-26 01:06:00,
2013-07-25 21:11:00,79.6,75.7,29.95,WSW,252,4.0,5.0,88,0.00,,SKC,0.15,VWS V14.01,2013-07-26 01:11:00,
2013-07-25 21:16:00,79.6,75.7,29.95,SW,235,3.0,4.0,88,0.00,,SKC,0.15,VWS V14.01,2013-07-26 01:16:00,
2013-07-25 21:21:00,79.5,76.0,29.95,SW,233,3.0,3.0,89,0.00,,SKC,0.15,VWS V14.01,2013-07-26 01:21:00,
2013-07-25 21:26:00,79.5,76.0,29.95,SW,220,5.0,6.0,89,0.00,,SKC,0.15,VWS V14.01,2013-07-26 01:26:00,
2013-07-25 21:31:00,79.5,76.0,29.95,SW,223,4.0,4.0,89,0.00,,SKC,0.15,VWS V14.01,2013-07-26 01:31:00,
2013-07-25 21:36:00,79.4,75.9,29.95,SW,214,6.0,6.0,89,0.00,,SKC,0.15,VWS V14.01,2013-07-26 01:36:00,
2013-07-25 21:41:00,79.4,75.9,29.95,SW,227,5.0,7.0,89,0.00,,SKC,0.15,VWS V14.01,2013-07-26 01:41:00,
2013-07-25 21:46:00,79.4,75.9,29.95,SW,221,5.0,6.0,89,0.00,,SKC,0.15,VWS V14.01,2013-07-26 01:46:00,
2013-07-25 21:51:00,79.3,75.8,29.95,SW,219,6.0,7.0,89,0.00,,SKC,0.15,VWS V14.01,2013-07-26 01:51:00,
2013-07-25 21:56:00,79.4,75.9,29.95,SW,218,8.0,8.0,89,0.00,,SKC,0.15,VWS V14.01,2013-07-26 01:56:00,
2013-07-25 22:01:00,79.3,75.8,29.95,SW,225,4.0,5.0,89,0.00,,SKC,0.15,VWS V14.01,2013-07-26 02:01:00,
2013-07-25 22:05:00,79.3,75.8,29.95,SSW,211,7.0,7.0,89,0.00,,SKC,0.15,VWS V14.01,2013-07-26 02:05:00,
2013-07-25 22:10:00,79.3,76.1,29.95,SW,231,4.0,8.0,90,0.00,,SKC,0.15,VWS V14.01,2013-07-26 02:10:00,
2013-07-25 22:15:00,79.3,76.1,29.95,NW,305,4.0,7.0,90,0.00,,SKC,0.15,VWS V14.01,2013-07-26 02:15:00,
2013-07-25 22:20:00,79.4,76.2,29.96,WNW,284,9.0,9.0,90,0.00,,SKC,0.15,VWS V14.01,2013-07-26 02:20:00,
2013-07-25 22:25:00,79.3,76.1,29.96,West,269,8.0,11.0,90,0.01,,SKC,0.16,VWS V14.01,2013-07-26 02:25:00,
2013-07-25 22:30:00,78.4,75.2,29.96,WSW,257,4.0,11.0,90,0.04,,SKC,0.19,VWS V14.01,2013-07-26 02:30:00,
2013-07-25 22:35:00,78.1,75.3,29.96,WNW,285,3.0,8.0,91,0.04,,SKC,0.19,VWS V14.01,2013-07-26 02:35:00,
2013-07-25 22:40:00,77.4,74.6,29.96,WNW,286,4.0,7.0,91,0.04,,SKC,0.19,VWS V14.01,2013-07-26 02:40:00,
2013-07-25 22:45:00,77.3,74.5,29.96,West,279,4.0,5.0,91,0.04,,SKC,0.19,VWS V14.01,2013-07-26 02:45:00,
2013-07-25 22:50:00,77.2,74.4,29.96,West,279,0.0,4.0,91,0.04,,SKC,0.19,VWS V14.01,2013-07-26 02:50:00,
2013-07-25 22:55:00,77.2,74.4,29.96,West,279,2.0,3.0,91,0.04,,SKC,0.19,VWS V14.01,2013-07-26 02:55:00,
2013-07-25 23:00:00,77.2,74.4,29.96,West,279,2.0,3.0,91,0.04,,SKC,0.19,VWS V14.01,2013-07-26 03:00:00,
2013-07-25 23:05:00,77.1,74.3,29.96,West,279,3.0,4.0,91,0.04,,SKC,0.19,VWS V14.01,2013-07-26 03:05:00,
2013-07-25 23:10:00,77.2,74.4,29.96,West,279,3.0,3.0,91,0.04,,SKC,0.19,VWS V14.01,2013-07-26 03:10:00,
2013-07-25 23:15:00,77.1,74.3,29.97,West,272,5.0,6.0,91,0.04,,SKC,0.19,VWS V14.01,2013-07-26 03:15:00,
2013-07-25 23:20:00,76.9,74.1,29.97,West,265,2.0,7.0,91,0.04,,SKC,0.19,VWS V14.01,2013-07-26 03:20:00,
2013-07-25 23:25:00,76.9,74.1,29.97,West,267,4.0,5.0,91,0.04,,SKC,0.19,VWS V14.01,2013-07-26 03:25:00,
2013-07-25 23:30:00,76.9,74.1,29.97,West,267,1.0,4.0,91,0.02,,SKC,0.19,VWS V14.01,2013-07-26 03:30:00,
2013-07-25 23:35:00,76.9,74.1,29.97,West,267,2.0,3.0,91,0.00,,SKC,0.19,VWS V14.01,2013-07-26 03:35:00,
2013-07-25 23:40:00,76.9,74.4,29.97,WNW,300,2.0,4.0,92,0.00,,SKC,0.19,VWS V14.01,2013-07-26 03:40:00,
2013-07-25 23:45:00,76.9,74.4,29.97,WNW,289,3.0,9.0,92,0.00,,SKC,0.19,VWS V14.01,2013-07-26 03:45:00,
2013-07-25 23:50:00,76.9,74.1,29.97,West,262,4.0,7.0,91,0.00,,SKC,0.19,VWS V14.01,2013-07-26 03:50:00,
2013-07-25 23:55:00,76.8,74.3,29.98,WSW,244,4.0,5.0,92,0.00,,SKC,0.19,VWS V14.01,2013-07-26 03:55:00,